Weather History for Ocala, FL

Change the Weather History Date:

Wednesday, July 31, 2013

  Actual Average Record
Temperature  
Mean Temperature 81 °F -  
Max Temperature 91 °F 88 °F 98 °F (1999)
Min Temperature 71 °F 70 °F 69 °F (2000)
Cooling Degree Days 16    
Growing Degree Days 31 (Base 50)    
Moisture  
Dew Point 69 °F    
Average Humidity 80    
Maximum Humidity 88    
Minimum Humidity 52    
Precipitation  
Precipitation 0.03 in - - ()
Sea Level Pressure  
Sea Level Pressure 30.10 in    
Wind  
Wind Speed 2 mph (South)    
Max Wind Speed 12 mph    
Max Gust Speed 18 mph    
Visibility 9 miles    
Events Rain    
Averages and records for this station are not official NWS values.
T = Trace of Precipitation, MM = Missing Value Source: NWS Daily Summary

Daily Weather History Graph

Daily Weather History Graph

Search for Another Location

Airport:

Trip Planner

Search our weather history database for the weather conditions in past years. The results will help you decide how hot, cold, wet, or windy it might be!

Date:

Astronomy

Jul. 31, 2013 Rise Set
Actual Time 6:48 AM EDT 8:21 PM EDT
Civil Twilight 6:23 AM EDT 8:46 PM EDT
Nautical Twilight 5:52 AM EDT 9:17 PM EDT
Astronomical Twilight 5:20 AM EDT 9:49 PM EDT
Moon 1:43 AM EDT (7/31) 3:34 PM EDT (7/31)
Length of Visible Light 14h 23m
Length of Day
13h 32m
Waning Crescent, 32% of the Moon is Illuminated
Jul 31
Waning Crescent
Aug 6
New
Aug 14
First Quarter
Aug 20
Full
Aug 28
Last Quarter

Hourly Weather History & Observations

Time (EDT) Temp. Heat Index Dew Point Humidity Pressure Visibility Wind Dir Wind Speed Gust Speed Precip Events Conditions
12:15 AM 75.2 °F - 69.8 °F 83% 30.15 in 10.0 mi Calm Calm - N/A   Clear
12:35 AM 75.2 °F - 69.8 °F 83% 30.15 in 10.0 mi WSW 5.8 mph - N/A   Clear
12:55 AM 75.2 °F - 69.8 °F 83% 30.15 in 10.0 mi Calm Calm - N/A   Scattered Clouds
1:15 AM 73.4 °F - 69.8 °F 88% 30.14 in 10.0 mi South 3.5 mph - N/A   Partly Cloudy
1:35 AM 73.4 °F - 69.8 °F 88% 30.13 in 10.0 mi Calm Calm - N/A   Clear
1:55 AM 73.4 °F - 69.8 °F 88% 30.12 in 10.0 mi Calm Calm - N/A   Clear
2:15 AM 73.4 °F - 69.8 °F 88% 30.11 in 9.0 mi Calm Calm - N/A   Clear
2:55 AM 73.4 °F - 69.8 °F 88% 30.10 in 10.0 mi Calm Calm - N/A   Clear
3:15 AM 73.4 °F - 69.8 °F 88% 30.10 in 9.0 mi Calm Calm - N/A   Clear
3:35 AM 73.4 °F - 69.8 °F 88% 30.10 in 10.0 mi Calm Calm - N/A   Clear
3:55 AM 73.4 °F - 68.0 °F 83% 30.10 in 10.0 mi Calm Calm - N/A   Clear
4:15 AM 73.4 °F - 68.0 °F 83% 30.10 in 10.0 mi Calm Calm - N/A   Clear
4:35 AM 73.4 °F - 68.0 °F 83% 30.09 in 7.0 mi Calm Calm - N/A   Clear
4:55 AM 73.4 °F - 68.0 °F 83% 30.09 in 10.0 mi Calm Calm - N/A   Clear
5:15 AM 71.6 °F - 68.0 °F 88% 30.09 in 8.0 mi Calm Calm - N/A   Clear
5:35 AM 73.4 °F - 68.0 °F 83% 30.09 in 8.0 mi Calm Calm - N/A   Clear
5:55 AM 73.4 °F - 68.0 °F 83% 30.10 in 8.0 mi Calm Calm - N/A   Clear
6:15 AM 71.6 °F - 68.0 °F 88% 30.10 in 6.0 mi Calm Calm - N/A   Clear
6:35 AM 71.6 °F - 68.0 °F 88% 30.11 in 7.0 mi Calm Calm - N/A   Clear
6:50 AM 71.6 °F - 68.0 °F 88% 30.11 in 7.0 mi Calm Calm - N/A   Partly Cloudy
7:50 AM 73.4 °F - 69.8 °F 88% 30.12 in 7.0 mi Calm Calm - N/A   Partly Cloudy
8:50 AM 78.8 °F - 71.6 °F 78% 30.14 in 10.0 mi Calm Calm - N/A   Partly Cloudy
9:50 AM 82.4 °F 87.2 °F 71.6 °F 70% 30.15 in 10.0 mi SE 5.8 mph - N/A   Partly Cloudy
10:50 AM 84.2 °F 90.9 °F 73.4 °F 70% 30.15 in 10.0 mi SE 4.6 mph - N/A   Mostly Cloudy
11:50 AM 86.0 °F 91.8 °F 71.6 °F 62% 30.14 in 10.0 mi South 3.5 mph - N/A   Mostly Cloudy
12:50 PM 89.6 °F 98.2 °F 73.4 °F 59% 30.12 in 10.0 mi SSE 4.6 mph - N/A   Mostly Cloudy
1:50 PM 89.6 °F 96.2 °F 71.6 °F 55% 30.08 in 10.0 mi South 5.8 mph - N/A   Mostly Cloudy
2:50 PM 91.4 °F 98.4 °F 71.6 °F 52% 30.05 in 10.0 mi South 8.1 mph - N/A   Mostly Cloudy
3:50 PM 89.6 °F 94.7 °F 69.8 °F 52% 30.02 in 10.0 mi SSE 4.6 mph - N/A   Mostly Cloudy
4:50 PM 78.8 °F - 68.0 °F 69% 30.06 in 7.0 mi WNW 11.5 mph 18.4 mph N/A   Mostly Cloudy
5:50 PM 75.2 °F - 69.8 °F 83% 30.05 in 7.0 mi WNW 3.5 mph - N/A Rain Light Rain
6:50 PM 75.2 °F - 69.8 °F 83% 30.04 in 7.0 mi NNW 5.8 mph - N/A Rain Light Rain
7:55 PM 75.2 °F - 69.8 °F 83% 30.06 in 10.0 mi Calm Calm - 0.03 in   Mostly Cloudy
8:15 PM 75.2 °F - 69.8 °F 83% 30.07 in 10.0 mi Calm Calm - N/A   Mostly Cloudy
8:35 PM 75.2 °F - 69.8 °F 83% 30.07 in 10.0 mi NNE 3.5 mph - N/A   Mostly Cloudy
8:55 PM 75.2 °F - 69.8 °F 83% 30.07 in 10.0 mi ENE 4.6 mph - N/A   Mostly Cloudy
9:15 PM 75.2 °F - 69.8 °F 83% 30.08 in 10.0 mi Calm Calm - N/A   Mostly Cloudy
9:35 PM 75.2 °F - 69.8 °F 83% 30.08 in 10.0 mi Calm Calm - N/A   Overcast
9:55 PM 75.2 °F - 69.8 °F 83% 30.08 in 10.0 mi Calm Calm - N/A   Scattered Clouds
10:15 PM 73.4 °F - 68.0 °F 83% 30.09 in 10.0 mi Calm Calm - N/A   Clear
10:35 PM 73.4 °F - 68.0 °F 83% 30.09 in 10.0 mi Calm Calm - N/A   Clear
10:55 PM 73.4 °F - 66.2 °F 78% 30.08 in 10.0 mi Calm Calm - N/A   Clear
11:15 PM 73.4 °F - 66.2 °F 78% 30.08 in 10.0 mi Calm Calm - N/A   Clear
11:35 PM 73.4 °F - 66.2 °F 78% 30.08 in 10.0 mi Calm Calm - N/A   Clear
11:55 PM 73.4 °F - 66.2 °F 78% 30.07 in 10.0 mi SSE 3.5 mph - N/A   Clear